Temperature
4 3 2 2 2 3 3 2 2 2 2 2 1 1 1 2 1 0 1 1 1 2 3 3 3 3 3 4 4 4 5 5 5 5 5 5 6 6 6 6 6 6 6 6
3 2 2 2 2 3 2 2 2 2 2 2 -0 0 1 0 -0 0 0 1 1 1 2 2 3 3 3 3 3 4 4 4 4 4 5 5 5 5 5 5 5 6 6 6
4 2 2 3 2 3 2 2 2 2 1 0 -0 1 1 0 0 0 1 1 1 1 1 2 2 2 3 3 3 3 3 4 4 4 4 4 4 4 5 5 5 5 5 5
1 2 2 2 2 2 2 2 2 1 1 -0 -0 1 1 -0 -1 -0 -0 0 1 1 1 1 2 2 2 2 3 3 3 3 3 3 3 3 3 4 4 4 4 4 5 5
1 1 2 2 2 2 1 1 1 0 -0 -1 -1 -1 1 -1 -0 -0 -1 -0 0 1 1 1 1 1 2 2 2 2 2 2 3 3 3 3 3 3 3 3 3 4 4 4
1 1 1 1 1 1 0 0 -0 -1 -2 -0 -1 -1 0 -1 -1 -1 -1 -0 -0 0 0 1 1 1 1 2 2 2 2 2 2 2 2 2 2 2 2 3 3 3 3 3
1 1 0 0 1 1 -0 0 1 1 -0 0 -1 -1 -1 -2 -2 -2 -2 -1 -1 -0 -0 0 0 1 1 1 1 1 1 1 2 2 2 2 2 2 2 2 2 2 3 3
1 1 0 -0 -0 -0 -1 0 1 1 1 -1 -2 -2 -1 -2 -2 -2 -2 -1 -1 -1 -1 -0 -0 -0 0 0 0 1 1 1 1 1 1 1 1 1 1 1 2 2 2 2
0 1 -0 -1 -1 -0 -1 -2 -2 -2 -3 -3 -2 -3 -3 -2 -2 -2 -2 -2 -1 -1 -1 -1 -0 -0 -0 -0 -0 -0 0 0 1 1 1 1 1 1 1 1 1 1 1 2
-1 -1 -1 -2 -1 -2 -2 -3 -3 -2 -1 -1 -1 -2 -2 -2 -2 -3 -3 -2 -1 -1 -1 -1 -1 -1 -1 -1 -1 -0 -0 -0 -0 0 0 0 0 1 1 1 1 1 1 1
-2 -2 -2 -2 -3 -2 -3 -3 -4 -4 -3 -2 -1 -1 -2 -3 -3 -4 -3 -2 -2 -1 -2 -2 -2 -1 -1 -1 -1 -1 -1 -1 -1 -1 -1 -0 -0 0 0 0 0 0 0 1
-3 -3 -3 -3 -3 -3 -3 -4 -4 -2 -3 -5 -4 -1 -3 -4 -4 -4 -3 -2 -2 -2 -2 -2 -2 -2 -2 -2 -2 -1 -1 -1 -1 -1 -1 -1 -1 -1 -0 -0 -0 -0 0 0
-3 -3 -1 -1 -2 -4 -4 -5 -5 -4 -4 -5 -4 -1 -3 -5 -4 -4 -3 -2 -2 -2 -2 -2 -2 -2 -2 -2 -2 -2 -2 -2 -2 -2 -2 -1 -1 -1 -1 -1 -1 -1 -0 -0
-2 -3 -2 0 -0 -3 -5 -5 -5 -5 -4 -5 -5 -3 -3 -3 -4 -4 -3 -3 -2 -2 -2 -3 -3 -3 -3 -3 -3 -3 -3 -3 -2 -2 -2 -2 -2 -2 -2 -1 -1 -1 -1 -1
-3 -4 -5 -4 -4 -4 -4 -4 -5 -5 -5 -4 -4 -4 -3 -4 -4 -4 -3 -3 -3 -3 -3 -3 -3 -3 -3 -3 -3 -3 -3 -3 -3 -3 -3 -2 -2 -2 -2 -2 -2 -2 -2 -2
-5 -4 -5 -5 -4 -4 -4 -4 -5 -5 -5 -5 -5 -4 -4 -4 -4 -4 -4 -4 -4 -3 -3 -4 -4 -4 -4 -4 -4 -4 -4 -4 -4 -3 -3 -3 -3 -3 -3 -3 -3 -3 -2 -2
-5 -5 -4 -4 -5 -5 -4 -4 -5 -5 -6 -6 -5 -4 -5 -5 -5 -4 -4 -4 -4 -4 -4 -4 -4 -4 -5 -5 -5 -5 -5 -5 -4 -4 -4 -4 -4 -4 -4 -3 -3 -3 -3 -3
-6 -5 -5 -5 -5 -3 -2 -5 -5 -5 -6 -7 -6 -6 -6 -5 -4 -4 -4 -4 -4 -4 -5 -5 -5 -5 -5 -5 -5 -5 -5 -5 -5 -5 -4 -5 -5 -5 -4 -4 -4 -4 -4 -4
-6 -5 -5 -6 -5 -5 -4 -5 -6 -6 -5 -6 -6 -6 -6 -5 -6 -4 -3 -4 -5 -5 -5 -5 -5 -5 -6 -6 -6 -6 -6 -6 -5 -5 -5 -5 -5 -5 -5 -5 -5 -4 -4 -4
-7 -7 -6 -7 -5 -4 -3 -5 -6 -6 -5 -5 -6 -6 -6 -6 -7 -5 -4 -5 -5 -5 -5 -6 -6 -6 -6 -6 -6 -6 -6 -6 -6 -6 -6 -6 -6 -6 -6 -5 -5 -5 -5 -5
-7 -8 -7 -7 -6 -5 -5 -6 -6 -5 -4 -4 -5 -5 -6 -7 -6 -5 -5 -6 -6 -6 -6 -6 -6 -6 -7 -7 -7 -7 -6 -6 -7 -7 -7 -6 -6 -6 -6 -6 -6 -6 -6 -5
-7 -8 -8 -8 -7 -5 -6 -7 -6 -5 -4 -4 -4 -5 -5 -5 -6 -6 -6 -6 -6 -6 -6 -7 -7 -7 -7 -7 -7 -7 -7 -7 -7 -7 -7 -7 -7 -7 -7 -7 -7 -6 -6 -6
-8 -7 -7 -7 -5 -5 -6 -5 -4 -4 -4 -4 -5 -5 -5 -6 -6 -6 -7 -7 -7 -7 -7 -7 -7 -7 -7 -8 -8 -8 -7 -7 -7 -8 -8 -8 -8 -8 -7 -7 -7 -7 -7 -7
-8 -8 -8 -8 -7 -7 -6 -5 -4 -5 -5 -5 -5 -6 -6 -6 -7 -7 -7 -7 -7 -7 -8 -8 -8 -8 -8 -8 -8 -8 -8 -8 -8 -8 -8 -8 -8 -8 -8 -8 -8 -8 -8 -7
-7 -9 -9 -8 -8 -7 -5 -4 -4 -5 -5 -6 -6 -6 -6 -7 -7 -7 -8 -8 -8 -8 -8 -8 -8 -8 -8 -8 -8 -8 -8 -8 -8 -8 -8 -8 -8 -8 -8 -8 -8 -8 -8 -8
-8 -9 -8 -6 -6 -7 -5 -4 -5 -5 -6 -6 -6 -6 -7 -7 -7 -8 -8 -8 -8 -8 -9 -9 -9 -9 -9 -9 -9 -9 -9 -9 -9 -9 -9 -9 -9 -9 -9 -8 -8 -8 -8 -8
Wind_Speed
5 5 2 2 2 2 3 2 5 6 3 3 7 12 13 7 4 6 5 4 5 6 5 3 3 3 3 3 3 2 3 3 2 1 1 1 1 1 1 1 1 1 1 2
5 1 2 1 1 1 2 2 4 5 2 3 7 11 10 5 4 5 5 5 5 5 5 4 3 3 3 3 3 3 3 4 2 1 2 2 2 2 2 2 2 2 2 2
3 2 1 1 1 0 2 3 4 4 4 2 6 8 4 2 2 3 3 3 3 4 4 4 4 4 4 3 3 3 4 4 3 2 1 1 1 1 2 2 2 2 3 2
1 2 1 1 0 1 4 2 2 3 3 4 3 5 6 4 4 4 4 3 4 4 3 3 3 4 4 4 4 4 4 4 3 2 1 2 2 3 4 3 3 3 3 3
1 1 2 1 2 1 2 2 1 1 1 3 1 2 8 3 5 6 5 4 4 3 2 3 3 3 4 4 3 3 4 4 4 3 2 2 3 4 3 3 4 4 4 4
0 1 0 1 1 0 1 2 3 3 3 3 3 3 7 3 4 5 5 5 5 3 3 3 3 3 4 4 4 4 4 5 5 4 3 2 4 5 4 4 4 4 4 4
4 2 2 2 2 3 4 4 4 5 3 5 1 3 8 5 4 4 5 7 6 4 4 4 4 4 4 5 5 5 5 6 5 5 4 3 4 5 5 5 5 5 4 4
2 5 2 2 1 1 0 3 4 3 5 6 3 5 7 4 4 4 4 5 5 5 4 4 4 4 4 5 5 5 5 6 6 5 5 4 4 4 4 5 5 5 6 6
1 4 2 2 2 2 2 1 2 4 0 4 6 7 8 3 4 4 5 5 5 6 6 5 5 4 5 5 5 5 6 7 7 6 6 5 4 4 5 5 5 5 5 6
3 3 3 2 2 3 2 5 4 3 1 5 7 5 5 7 6 5 6 6 7 7 7 6 5 5 5 5 6 6 6 6 7 7 6 6 5 5 5 5 5 6 6 6
2 2 4 2 3 4 3 3 3 3 3 3 5 7 4 5 4 5 6 6 6 6 7 7 6 6 6 6 6 6 6 7 7 7 6 6 6 6 5 5 6 6 6 6
2 3 3 5 1 1 3 5 5 3 4 4 3 8 3 4 4 4 6 7 6 6 7 7 7 7 6 7 7 7 7 7 7 7 7 6 6 6 5 6 6 6 6 5
4 3 3 5 2 1 1 2 3 3 3 4 4 8 2 3 5 5 5 7 7 7 7 7 7 7 7 7 7 7 7 7 7 7 7 7 7 7 6 6 6 6 6 5
4 3 6 8 6 3 4 4 4 5 4 6 9 13 11 10 8 8 7 8 7 7 8 8 8 8 8 7 7 8 8 7 7 7 7 7 7 7 7 6 6 5 6 5
3 3 5 8 7 4 7 8 7 9 9 9 10 10 14 11 8 8 7 7 8 9 8 8 8 8 8 8 8 8 8 8 7 7 7 8 8 7 7 6 6 6 5 6
2 2 1 5 3 4 7 10 10 10 9 11 13 15 12 8 6 7 7 8 9 9 9 8 9 8 9 8 8 8 8 8 7 7 8 8 8 7 7 7 6 6 6 6
3 3 1 4 3 4 8 8 9 6 7 8 11 12 7 7 7 7 7 8 9 9 9 9 9 8 8 8 8 8 9 8 7 8 8 8 8 8 7 7 6 6 6 5
5 4 2 2 4 6 6 1 6 7 7 9 9 8 7 9 8 7 7 7 8 8 8 8 8 9 8 8 8 8 8 7 8 8 8 8 8 8 8 7 6 6 5 5
4 5 3 2 3 8 7 3 4 5 7 7 10 11 8 7 7 6 5 4 6 7 7 7 7 7 8 8 8 8 8 8 8 8 8 8 7 8 8 7 7 6 5 5
3 3 3 3 3 7 6 1 1 3 6 4 5 7 6 4 5 6 4 5 7 7 6 6 6 6 7 8 7 7 8 8 8 9 8 8 7 8 8 7 7 6 5 5
2 2 4 5 6 9 6 1 4 3 6 3 4 5 4 4 6 6 7 7 6 6 7 6 6 6 7 8 7 7 8 8 9 8 8 8 8 7 7 7 6 6 5 4
7 6 6 5 5 9 3 6 6 7 3 2 3 4 5 6 6 6 7 7 7 7 6 6 6 8 8 7 7 8 8 9 8 8 8 8 8 7 6 6 6 5 4 4
7 8 6 9 8 3 5 6 4 2 3 4 3 4 4 5 6 7 6 7 7 7 7 6 6 8 8 7 6 8 9 8 8 8 8 8 8 7 6 6 5 5 3 3
4 3 4 6 9 7 6 6 5 4 5 5 4 4 4 5 6 7 7 7 7 7 7 6 7 8 9 9 8 8 8 8 7 8 8 8 7 7 6 5 4 4 3 3
5 5 4 6 7 6 6 7 7 5 5 4 4 3 4 5 6 6 6 7 7 7 7 6 7 8 10 9 9 8 7 7 7 7 7 7 6 6 6 5 4 4 4 4
4 6 6 7 6 5 6 4 3 4 5 5 4 4 4 4 6 6 6 6 6 7 6 7 8 8 9 9 9 8 6 6 6 7 7 5 5 5 5 5 5 7 6 8
Wind_Direction
26 61 73 218 186 171 166 207 265 275 285 275 261 271 278 279 267 274 281 279 274 277 290 308 319 326 332 337 344 336 333 319 322 278 246 244 259 257 273 303 296 297 289 298
46 29 249 192 148 140 175 240 269 287 307 275 287 281 275 263 242 244 256 265 274 293 310 319 328 341 335 332 333 335 333 324 318 284 247 231 245 247 253 281 295 282 278 276
146 233 286 117 83 211 238 213 251 280 318 311 313 301 279 288 252 269 269 270 284 270 281 304 319 332 333 329 323 323 325 322 319 324 316 307 284 296 272 264 267 288 270 261
77 319 11 76 326 173 266 247 264 301 340 306 20 304 292 303 314 312 298 289 278 280 285 304 312 325 322 309 319 330 326 326 329 343 329 260 258 257 261 252 254 276 265 256
321 2 29 345 307 213 248 323 296 293 176 319 337 235 288 338 315 303 298 290 280 275 279 290 297 307 320 322 320 323 326 331 335 340 310 273 263 258 268 261 255 256 263 259
286 354 39 266 342 74 320 15 49 58 71 300 248 198 286 272 264 297 323 325 312 311 305 301 323 344 343 348 344 340 330 331 333 332 315 285 272 267 267 266 256 253 252 253
339 342 6 25 30 21 40 57 12 355 351 264 239 227 257 259 262 280 306 317 320 321 319 326 337 340 339 343 337 337 334 327 327 328 320 298 276 266 257 257 255 255 254 252
344 299 315 17 107 200 212 119 149 235 265 292 310 250 258 264 286 290 296 309 328 328 322 321 320 319 324 328 328 328 323 320 323 321 313 310 287 274 266 260 256 254 251 249
190 268 5 33 19 118 114 125 138 138 328 291 279 289 301 292 314 320 325 334 329 325 321 320 326 327 325 320 316 313 317 318 316 313 310 313 301 283 275 269 261 257 261 260
156 266 298 325 53 38 96 138 101 125 236 280 294 284 277 304 308 321 322 317 318 324 323 325 326 323 317 311 312 316 316 311 310 312 311 307 305 286 277 275 273 269 265 267
133 189 305 345 199 203 116 118 130 141 171 204 282 277 232 246 283 294 296 302 313 320 319 319 319 317 316 319 319 316 315 314 313 312 309 307 303 296 283 279 275 273 266 263
137 136 265 256 249 176 176 176 159 178 230 205 234 273 267 238 279 288 296 309 313 311 312 314 314 318 321 321 320 317 313 311 309 308 308 307 308 309 294 284 282 278 271 266
143 129 330 331 338 359 236 200 187 154 147 189 214 267 320 336 317 309 302 308 311 313 314 317 317 316 314 315 315 313 311 309 311 313 312 314 315 310 302 291 285 282 274 271
132 167 202 233 252 218 239 227 196 169 205 230 233 260 289 305 311 314 310 308 309 307 310 312 312 312 310 312 313 313 312 314 315 315 313 313 309 303 299 297 293 282 273 268
132 218 239 259 266 251 246 243 212 209 217 227 253 256 271 284 291 296 299 307 311 311 312 310 310 312 313 314 315 314 313 316 316 315 313 308 306 304 304 303 302 296 284 270
146 212 275 281 266 258 267 256 231 229 234 244 265 273 273 280 288 296 298 301 303 305 306 309 311 312 312 311 310 311 311 313 315 312 308 308 307 305 304 302 301 299 295 283
171 165 207 275 316 325 274 243 209 207 212 209 237 255 286 294 291 287 291 294 293 299 306 308 310 308 307 307 305 305 306 310 312 309 307 307 306 306 305 303 303 299 293 288
162 158 185 289 359 258 250 167 190 211 238 224 242 265 276 273 281 278 273 277 286 295 301 304 308 309 310 308 308 307 308 308 307 307 307 307 307 308 307 304 302 296 287 282
171 163 174 195 264 276 288 242 182 205 265 234 242 267 284 298 308 290 266 262 277 287 292 294 297 300 306 309 310 310 310 309 309 306 306 307 308 308 308 305 302 297 287 283
67 117 162 175 223 250 261 228 182 128 282 259 229 264 286 328 309 293 311 311 303 303 302 302 306 308 309 310 312 310 309 309 305 304 305 307 309 307 306 303 301 296 285 282
126 141 192 209 233 263 261 186 124 172 263 279 238 258 262 246 251 287 310 312 307 305 305 308 309 309 306 310 313 309 307 303 302 306 308 310 311 306 301 301 302 300 293 292
178 176 194 179 213 256 204 140 186 229 281 279 267 264 260 266 284 299 307 309 311 312 312 314 313 311 312 313 312 308 304 305 309 310 310 310 311 308 307 306 305 302 296 295
201 195 193 198 219 261 178 203 231 243 265 269 269 280 276 284 289 298 303 305 306 307 309 312 310 311 313 312 309 303 303 309 312 313 311 310 310 310 310 307 304 305 300 288
237 198 201 246 261 261 248 253 263 253 255 270 274 281 275 280 289 296 301 304 307 308 308 311 314 313 313 315 312 301 302 309 310 310 310 310 310 311 311 306 303 299 298 291
222 180 216 253 276 300 270 247 252 261 271 280 287 277 268 278 290 291 295 297 300 306 309 311 309 307 309 314 313 308 307 310 310 309 310 310 308 307 310 305 297 293 282 275
194 185 195 237 234 225 261 269 248 252 267 273 281 294 293 277 280 290 292 293 298 303 308 313 311 312 313 316 316 315 314 312 309 310 311 309 309 310 311 311 312 312 306 308
Height
1517 1522 1526 1527 1526 1526 1528 1530 1530 1527 1524 1524 1521 1516 1510 1509 1509 1508 1507 1506 1506 1505 1506 1507 1507 1507 1507 1507 1506 1507 1507 1507 1507 1507 1507 1508 1508 1509 1510 1511 1512 1514 1515 1516
1522 1526 1526 1525 1526 1526 1528 1530 1530 1526 1524 1524 1522 1515 1508 1506 1506 1505 1504 1503 1503 1503 1503 1503 1504 1504 1504 1504 1504 1504 1504 1504 1504 1504 1505 1505 1505 1506 1506 1508 1508 1510 1511 1512
1523 1527 1525 1525 1526 1526 1527 1529 1528 1527 1525 1524 1524 1512 1506 1504 1503 1503 1502 1501 1501 1501 1500 1501 1501 1501 1500 1500 1501 1500 1501 1501 1501 1502 1502 1502 1503 1503 1503 1503 1504 1505 1507 1508
1527 1526 1525 1525 1526 1525 1525 1526 1525 1526 1528 1530 1528 1523 1507 1505 1503 1501 1500 1499 1499 1499 1499 1499 1498 1498 1498 1498 1499 1499 1499 1499 1498 1498 1498 1499 1498 1498 1498 1499 1500 1501 1502 1503
1528 1527 1526 1526 1526 1526 1526 1526 1526 1527 1530 1533 1532 1531 1511 1508 1504 1500 1499 1498 1498 1497 1497 1497 1497 1497 1497 1497 1497 1497 1496 1496 1495 1495 1495 1495 1495 1495 1495 1496 1496 1497 1497 1498
1528 1528 1528 1527 1527 1526 1527 1527 1529 1532 1534 1533 1530 1531 1515 1511 1505 1500 1498 1497 1496 1496 1496 1495 1495 1495 1495 1495 1495 1495 1494 1493 1492 1492 1492 1492 1491 1491 1491 1491 1492 1492 1493 1493
1529 1529 1528 1528 1528 1528 1529 1531 1533 1532 1537 1530 1530 1528 1516 1506 1503 1501 1499 1497 1496 1495 1494 1493 1493 1492 1492 1492 1492 1491 1490 1489 1489 1488 1488 1488 1488 1487 1487 1487 1487 1487 1488 1488
1533 1532 1530 1530 1530 1532 1532 1532 1535 1536 1535 1532 1532 1528 1511 1504 1502 1501 1499 1497 1495 1495 1494 1492 1492 1492 1491 1490 1490 1489 1488 1486 1485 1485 1484 1483 1483 1483 1482 1482 1482 1482 1483 1483
1535 1532 1532 1531 1531 1531 1534 1538 1538 1544 1549 1548 1532 1525 1511 1502 1501 1499 1498 1497 1495 1494 1493 1491 1491 1490 1489 1488 1488 1487 1485 1483 1482 1481 1480 1479 1479 1478 1478 1477 1478 1477 1477 1478
1535 1538 1534 1533 1532 1533 1534 1538 1543 1544 1541 1535 1529 1527 1515 1505 1501 1499 1498 1496 1495 1493 1492 1491 1490 1489 1488 1487 1486 1484 1482 1481 1480 1478 1476 1475 1475 1474 1473 1473 1472 1471 1471 1472
1535 1539 1537 1535 1536 1535 1538 1540 1542 1545 1545 1542 1534 1518 1508 1506 1502 1501 1499 1497 1495 1493 1492 1490 1489 1488 1487 1485 1483 1481 1480 1478 1477 1475 1473 1472 1470 1469 1468 1467 1467 1466 1466 1466
1536 1540 1541 1536 1535 1534 1535 1537 1540 1540 1542 1548 1542 1520 1504 1504 1501 1500 1498 1496 1494 1493 1491 1489 1488 1486 1484 1482 1480 1478 1477 1475 1473 1471 1469 1467 1466 1464 1463 1462 1461 1461 1460 1461
1535 1539 1537 1530 1536 1538 1537 1537 1538 1539 1542 1546 1541 1517 1503 1502 1500 1499 1497 1495 1493 1491 1490 1488 1486 1483 1481 1479 1477 1475 1473 1471 1469 1467 1465 1463 1461 1459 1458 1457 1456 1455 1455 1454
1531 1536 1535 1528 1524 1531 1536 1536 1537 1537 1538 1537 1530 1513 1503 1501 1499 1497 1496 1494 1492 1490 1488 1486 1483 1481 1479 1477 1474 1472 1470 1468 1465 1463 1461 1458 1457 1455 1453 1452 1451 1450 1449 1449
1530 1535 1535 1531 1528 1530 1528 1528 1531 1531 1528 1526 1515 1513 1502 1499 1499 1497 1495 1492 1490 1488 1486 1484 1481 1479 1476 1473 1471 1468 1466 1464 1461 1459 1456 1454 1452 1450 1448 1447 1445 1445 1444 1443
1530 1534 1535 1531 1527 1528 1525 1520 1522 1523 1522 1520 1514 1507 1497 1497 1496 1494 1492 1490 1488 1486 1484 1482 1479 1476 1473 1470 1467 1465 1462 1459 1457 1454 1452 1450 1449 1447 1445 1442 1441 1439 1438 1438
1531 1533 1533 1529 1529 1525 1518 1511 1514 1515 1513 1513 1510 1501 1496 1495 1494 1492 1489 1487 1485 1483 1482 1479 1476 1474 1471 1468 1465 1461 1458 1455 1453 1450 1448 1446 1444 1441 1439 1437 1435 1434 1433 1433
1529 1531 1532 1533 1531 1521 1505 1505 1505 1507 1506 1505 1501 1497 1495 1493 1490 1489 1487 1485 1483 1481 1478 1476 1473 1470 1467 1464 1461 1458 1454 1451 1448 1446 1444 1441 1439 1436 1434 1432 1430 1429 1429 1428
1524 1527 1531 1534 1532 1519 1505 1503 1504 1506 1501 1497 1496 1493 1492 1490 1487 1484 1483 1482 1481 1478 1476 1473 1470 1467 1463 1460 1457 1454 1450 1447 1444 1442 1439 1437 1434 1432 1430 1427 1425 1424 1424 1423
1526 1526 1531 1534 1529 1517 1501 1501 1500 1503 1500 1491 1491 1490 1489 1488 1489 1483 1480 1479 1477 1475 1472 1469 1466 1463 1460 1457 1453 1450 1446 1443 1440 1438 1435 1433 1430 1428 1425 1423 1421 1420 1419 1418
1529 1531 1532 1532 1528 1513 1500 1499 1500 1505 1495 1489 1487 1487 1487 1486 1485 1481 1478 1476 1474 1471 1469 1466 1463 1459 1456 1453 1450 1446 1443 1440 1437 1434 1431 1429 1426 1424 1421 1419 1417 1416 1414 1413
1520 1526 1529 1529 1528 1511 1495 1497 1498 1492 1488 1487 1485 1484 1483 1481 1479 1477 1475 1473 1470 1468 1465 1462 1459 1455 1453 1450 1446 1442 1439 1436 1433 1430 1427 1425 1422 1420 1418 1415 1413 1412 1410 1409
1512 1509 1510 1510 1501 1492 1491 1489 1488 1487 1486 1484 1483 1482 1481 1478 1476 1474 1472 1470 1467 1465 1462 1459 1455 1452 1449 1446 1443 1439 1436 1433 1430 1427 1424 1421 1418 1416 1414 1412 1410 1408 1406 1405
1505 1503 1504 1502 1492 1488 1487 1486 1485 1485 1483 1482 1481 1479 1478 1476 1473 1471 1469 1466 1464 1461 1458 1455 1452 1448 1445 1442 1439 1436 1433 1430 1427 1423 1420 1417 1415 1413 1411 1409 1407 1405 1403 1402
1496 1499 1499 1495 1488 1485 1481 1481 1481 1481 1480 1479 1478 1476 1475 1473 1470 1468 1466 1463 1461 1458 1455 1452 1449 1445 1441 1438 1435 1432 1429 1426 1423 1420 1417 1414 1412 1409 1407 1405 1404 1402 1401 1400
1490 1491 1493 1486 1481 1482 1479 1478 1478 1477 1476 1475 1474 1472 1471 1470 1467 1465 1462 1460 1458 1455 1452 1449 1445 1442 1438 1434 1431 1428 1426 1423 1420 1417 1414 1411 1409 1407 1404 1402 1401 1399 1399 1397